Regional Weather Roundup
Issued by NWS Bismarck, ND

Home | Current Version | Previous Version | Text Only | Print | Product List | Glossary On
Versions: 1 2 3 4 5 6 7 8 9 10 11 12 13 14 15 16 17 18 19 20 21 22 23 24 25 26 27 28 29 30 31 32 33 34 35 36 37 38 39 40 41 42 43 44 45 46 47 48 49 50
000
ASUS43 KBIS 221302
RWRBIS

NWR BROADCAST TEXT
NATIONAL WEATHER SERVICE BISMARCK ND
800 AM CDT SUN APR 22 2018

NOTE: "FAIR" INDICATES FEW OR NO CLOUDS BELOW 12,000 FEET WITH NO
SIGNIFICANT WEATHER AND/OR OBSTRUCTIONS TO VISIBILITY.


CITY           SKY/WX    TMP DP  RH WIND       PRES   REMARKS
WILLISTON      PTSUNNY   42  30  62 CALM      30.12R
MINOT          SUNNY     42  36  79 SW13      30.09R
MINOT AFB      NOT AVBL
BISMARCK       SUNNY     39  35  86 CALM      30.18R
DICKINSON      SUNNY     36  35  96 W3        30.11R
GARRISON         N/A     37  35  92 S8        30.12R
HETTINGER ARPT SUNNY     33  31  92 CALM      30.14S
JAMESTOWN      CLOUDY    37  34  89 S12       30.22R
CARRINGTON     FAIR      41  34  75 S16G23    30.19S
LINTON           N/A    N/A N/A N/A SE10      30.22S
OAKES            N/A     36  36 100 S9        30.27R
TIOGA          FAIR      36  36 100 W7        30.12R
$$

CITY           SKY/WX    TMP DP  RH WIND       PRES   REMARKS
GRAND FORKS    PTSUNNY   37  36  96 S10       30.23R
GRAND FORKS AF FAIR      41  36  81 S10       30.22R
DEVILS LAKE    FAIR      42  32  67 S17       30.15F
FARGO          FAIR      40  33  76 S8        30.27R
CANDO          FAIR      39  37  93 S13       30.14F
CAVALIER         N/A     41  34  75 S14       30.15F
GWINNER          N/A     37  34  87 S7        30.27S
ROLLA          FAIR      37  37 100 S13       30.10R
WALHALLA       FAIR      46  34  61 S21G32    30.11F
$$

CITY           SKY/WX    TMP DP  RH WIND       PRES   REMARKS
ABERDEEN       SUNNY     37  33  85 S8        30.27S
MOBRIDGE       MOSUNNY   38  34  85 SE6       30.20R
BUFFALO          N/A     36  33  89 W3        30.07R
RAPID CITY     SUNNY     34  31  88 E3        30.16R
GLASGOW        PTCLDY    39  30  70 W7        30.14R
SIDNEY         CLOUDY    46  29  51 NW9       30.13R
WOLF POINT     CLOUDY    41  29  62 NW3       30.14R
GLENDIVE       MOCLDY    41  30  65 W8        30.16R
MILES CITY     MOCLDY    41  33  73 W8        30.17R
BAKER          CLEAR     35  35 100 CALM      30.16R
$$

CITY           SKY/WX    TMP DP  RH WIND       PRES   REMARKS
BILLINGS       PTCLDY    43  29  57 N5        30.18R
GREAT FALLS    CLOUDY    38  23  55 SW12      30.14S
$$




USA.gov is the U.S. government's official web portal to all federal, state and local government web resources and services.